Location: Rounton
(54.4000°N, 1.3500°W)
Time: 05:10:28
(UTC+00:00)

A-11 Canister half - Pass Details

Date: 05 December 2021
Orbit: 1516 x 1684 km, 47.2° (Epoch: 21 January)

Event Time Altitude Azimuth Distance (km) Brightness Sun altitude
Rises 08:53:49 0° 250° (WSW) 4,797 11.4 3.8°
Reaches altitude 10° 08:56:56 10° 247° (WSW) 3,835 10.9 4.1°
Maximum altitude 09:06:26 57° 172° (S) 1,897 10.1 5.0°
Drops below altitude 10° 09:16:12 10° 98° (E) 3,940 11.9 5.9°
Sets 09:19:27 0° 95° (E) 4,936 12.3 6.2°
